User: anonymous
Location: Montr�al
(45.5000°N, 73.5830°W)
Time: 13:22:41
(UTC-04:00)
Language:

Cosmos 1470 Rocket - Orbit

View from above orbital plane
View from above orbital plane
View from above satellite
View from above satellite

Ground track
Ground track

The orbit data is extracted from the following two-line orbital elements,

1 14148U 83061B   14113.54371390  .00000801  00000-0  96175-4 0  6222
2 14148 082.5183 266.9129 0022762 160.9460 267.0134 14.82627499664301
Epoch (UTC): 23 April 2014 13:02:56
Eccentricity: 0.0022762
inclination: 82.5183°
perigee height: 605 km
apogee height: 637 km
right ascension of ascending node: 266.9129°
argument of perigee: 160.9460°
revolutions per day: 14.82627499
mean anomaly at epoch: 267.0134°
orbit number at epoch: 66430

The dashed part of the orbit path shows where the satellite is in the earth's shadow,  

DLR